• In Latvia
  • List of Countries
  • For 7 days
  • Water Temperature
  • Satellite Maps
  • Weather Map
  • Weather Widgets
  • user-avatar
    Login

    Hourly Weather Dustobod

    Today, 19 February, Monday

    Time Temperature Precipitation Wind Pressure Humidity
    00:00 +2°C° 0 mm 1 mps 744 mmHg 73%
    01:00 +2°C° 0 mm 1 mps 743 mmHg 72%
    02:00 +2°C° 0 mm 1 mps 743 mmHg 72%
    03:00 +2°C° 0 mm 1 mps 742 mmHg 71%
    04:00 +2°C° 0 mm 1 mps 742 mmHg 69%
    05:00 +1°C° 0 mm 1 mps 741 mmHg 69%
    06:00 +1°C° 0 mm 1 mps 741 mmHg 67%
    07:00 +2°C° 0 mm 1 mps 741 mmHg 65%
    08:00 +2°C° 0 mm 1 mps 741 mmHg 63%
    09:00 +4°C° 0 mm 1 mps 740 mmHg 57%
    10:00 +5°C° 0 mm 2 mps 740 mmHg 51%
    11:00 +7°C° 0 mm 3 mps 740 mmHg 45%
    12:00 +9°C° 0 mm 3 mps 739 mmHg 42%
    13:00 +10°C° 0 mm 3 mps 739 mmHg 38%
    14:00 +11°C° 0 mm 4 mps 739 mmHg 34%
    15:00 +11°C° 0 mm 3 mps 738 mmHg 37%
    16:00 +10°C° 0 mm 3 mps 738 mmHg 40%
    17:00 +10°C° 0 mm 2 mps 738 mmHg 42%
    18:00 +9°C° 0 mm 2 mps 738 mmHg 44%
    19:00 +8°C° 0 mm 2 mps 738 mmHg 45%
    20:00 +8°C° 0 mm 2 mps 738 mmHg 46%
    21:00 +8°C° 0 mm 2 mps 738 mmHg 45%
    22:00 +8°C° 0 mm 3 mps 738 mmHg 44%
    23:00 +8°C° 0 mm 3 mps 738 mmHg 43%

    Tomorrow, 20 February, Tuesday

    Time Temperature Precipitation Wind Pressure Humidity
    00:00 +8°C° 0 mm 3 mps 737 mmHg 44%
    01:00 +8°C° 0 mm 3 mps 737 mmHg 44%
    02:00 +8°C° 0 mm 3 mps 736 mmHg 45%
    03:00 +8°C° 0 mm 3 mps 736 mmHg 44%
    04:00 +8°C° 0 mm 3 mps 735 mmHg 44%
    05:00 +8°C° 0 mm 3 mps 735 mmHg 44%
    06:00 +8°C° 0 mm 4 mps 735 mmHg 42%
    07:00 +8°C° 0 mm 4 mps 734 mmHg 40%
    08:00 +9°C° 0 mm 5 mps 734 mmHg 38%
    09:00 +12°C° 0 mm 5 mps 734 mmHg 36%
    10:00 +14°C° 0 mm 5 mps 734 mmHg 33%
    11:00 +15°C° 0 mm 5 mps 734 mmHg 31%
    12:00 +16°C° 0 mm 5 mps 734 mmHg 31%
    13:00 +16°C° 0 mm 5 mps 734 mmHg 31%
    14:00 +17°C° 0 mm 4 mps 734 mmHg 31%
    15:00 +15°C° 0.1 mm 4 mps 735 mmHg 42%
    16:00 +13°C° 0.1 mm 4 mps 735 mmHg 53%
    17:00 +12°C° 0.1 mm 4 mps 736 mmHg 64%
    18:00 +11°C° 0.9 mm 3 mps 736 mmHg 70%
    19:00 +10°C° 0.9 mm 2 mps 737 mmHg 76%
    20:00 +9°C° 0.9 mm 2 mps 738 mmHg 82%
    21:00 +10°C° 1.9 mm 1 mps 738 mmHg 85%
    22:00 +9°C° 1.9 mm 1 mps 739 mmHg 88%
    23:00 +9°C° 1.9 mm 1 mps 739 mmHg 91%

    Day after tomorrow, 21 February, Wednesday

    Time Temperature Precipitation Wind Pressure Humidity
    00:00 +8°C° 0.4 mm 1 mps 740 mmHg 90%
    01:00 +7°C° 0.4 mm 2 mps 740 mmHg 88%
    02:00 +7°C° 0.4 mm 2 mps 741 mmHg 87%
    03:00 +7°C° 0.1 mm 2 mps 741 mmHg 87%
    04:00 +6°C° 0.1 mm 2 mps 742 mmHg 87%
    05:00 +6°C° 0.1 mm 2 mps 742 mmHg 86%
    06:00 +6°C° 0 mm 2 mps 742 mmHg 86%
    07:00 +7°C° 0 mm 1 mps 743 mmHg 86%
    08:00 +7°C° 0 mm 1 mps 743 mmHg 86%
    09:00 +7°C° 0 mm 1 mps 743 mmHg 81%
    10:00 +8°C° 0 mm 1 mps 744 mmHg 76%
    11:00 +9°C° 0 mm 1 mps 744 mmHg 72%
    12:00 +10°C° 0 mm 1 mps 743 mmHg 68%
    13:00 +11°C° 0 mm 1 mps 743 mmHg 64%
    14:00 +11°C° 0 mm 1 mps 743 mmHg 60%
    15:00 +12°C° 0 mm 1 mps 743 mmHg 59%
    16:00 +12°C° 0 mm 1 mps 743 mmHg 58%
    17:00 +12°C° 0 mm 1 mps 743 mmHg 57%
    18:00 +11°C° 0 mm 1 mps 744 mmHg 62%
    19:00 +10°C° 0 mm 1 mps 744 mmHg 66%
    20:00 +9°C° 0 mm 2 mps 744 mmHg 71%
    21:00 +9°C° 0 mm 1 mps 744 mmHg 72%
    22:00 +9°C° 0 mm 1 mps 744 mmHg 74%
    23:00 +8°C° 0 mm 1 mps 744 mmHg 75%

    22 February, Thursday

    Time Temperature Precipitation Wind Pressure Humidity
    00:00 +8°C° 0 mm 1 mps 744 mmHg 76%
    01:00 +8°C° 0 mm 1 mps 743 mmHg 77%
    02:00 +7°C° 0 mm 1 mps 743 mmHg 78%
    03:00 +7°C° 0 mm 1 mps 743 mmHg 78%
    04:00 +7°C° 0 mm 1 mps 743 mmHg 79%
    05:00 +6°C° 0 mm 1 mps 742 mmHg 80%
    06:00 +7°C° 0 mm 1 mps 742 mmHg 79%
    07:00 +7°C° 0 mm 1 mps 742 mmHg 79%
    08:00 +7°C° 0 mm 1 mps 742 mmHg 78%
    09:00 +8°C° 0 mm 1 mps 742 mmHg 72%
    10:00 +10°C° 0 mm 1 mps 742 mmHg 66%
    11:00 +11°C° 0 mm 1 mps 741 mmHg 60%
    12:00 +13°C° 0 mm 2 mps 741 mmHg 56%
    13:00 +14°C° 0 mm 2 mps 740 mmHg 52%
    14:00 +15°C° 0 mm 2 mps 740 mmHg 49%
    15:00 +15°C° 0 mm 2 mps 740 mmHg 49%
    16:00 +15°C° 0 mm 2 mps 740 mmHg 48%
    17:00 +15°C° 0 mm 2 mps 739 mmHg 48%
    18:00 +14°C° 0 mm 2 mps 740 mmHg 53%
    19:00 +13°C° 0 mm 2 mps 740 mmHg 58%
    20:00 +12°C° 0 mm 2 mps 740 mmHg 63%
    21:00 +10°C° 0 mm 2 mps 740 mmHg 65%
    22:00 +11°C° 0 mm 1 mps 740 mmHg 68%
    23:00 +10°C° 0 mm 1 mps 740 mmHg 70%

    23 February, Friday

    Time Temperature Precipitation Wind Pressure Humidity
    00:00 +10°C° 0 mm 1 mps 739 mmHg 71%
    01:00 +9°C° 0 mm 1 mps 739 mmHg 73%
    02:00 +9°C° 0 mm 1 mps 739 mmHg 74%
    03:00 +9°C° 0 mm 1 mps 739 mmHg 75%
    04:00 +9°C° 0 mm 1 mps 739 mmHg 75%
    05:00 +9°C° 0 mm 1 mps 738 mmHg 76%
    06:00 +9°C° 0 mm 1 mps 739 mmHg 76%
    07:00 +9°C° 0 mm 1 mps 739 mmHg 76%
    08:00 +9°C° 0 mm 1 mps 739 mmHg 76%
    09:00 +10°C° 0 mm 1 mps 739 mmHg 74%
    10:00 +10°C° 0 mm 1 mps 740 mmHg 71%
    11:00 +11°C° 0 mm 1 mps 740 mmHg 69%
    12:00 +12°C° 0.1 mm 1 mps 740 mmHg 67%
    13:00 +12°C° 0.1 mm 1 mps 739 mmHg 64%
    14:00 +13°C° 0.1 mm 1 mps 739 mmHg 62%
    15:00 +13°C° 0.1 mm 1 mps 739 mmHg 63%
    16:00 +13°C° 0.1 mm 1 mps 739 mmHg 65%
    17:00 +13°C° 0.1 mm 1 mps 739 mmHg 66%
    18:00 +12°C° 0 mm 1 mps 740 mmHg 68%
    19:00 +12°C° 0 mm 1 mps 740 mmHg 70%
    20:00 +11°C° 0 mm 1 mps 741 mmHg 72%
    21:00 +11°C° 0 mm 1 mps 741 mmHg 72%
    22:00 +11°C° 0 mm 1 mps 741 mmHg 72%
    23:00 +10°C° 0 mm 1 mps 741 mmHg 72%

    24 February, Saturday

    Time Temperature Precipitation Wind Pressure Humidity
    00:00 +10°C° 0 mm 1 mps 741 mmHg 73%
    01:00 +10°C° 0 mm 1 mps 741 mmHg 74%
    02:00 +9°C° 0 mm 1 mps 741 mmHg 75%
    03:00 +9°C° 0 mm 1 mps 741 mmHg 75%
    04:00 +9°C° 0 mm 1 mps 740 mmHg 75%
    05:00 +9°C° 0 mm 1 mps 740 mmHg 75%
    06:00 +9°C° 0 mm 1 mps 740 mmHg 74%
    07:00 +9°C° 0 mm 1 mps 740 mmHg 74%
    08:00 +9°C° 0 mm 1 mps 740 mmHg 73%
    09:00 +10°C° 0 mm 2 mps 740 mmHg 66%
    10:00 +12°C° 0 mm 2 mps 740 mmHg 58%
    11:00 +14°C° 0 mm 2 mps 740 mmHg 50%
    12:00 +15°C° 0 mm 2 mps 740 mmHg 46%
    13:00 +16°C° 0 mm 3 mps 739 mmHg 41%
    14:00 +17°C° 0 mm 3 mps 739 mmHg 37%
    15:00 +17°C° 0 mm 3 mps 739 mmHg 39%
    16:00 +17°C° 0 mm 2 mps 739 mmHg 42%
    17:00 +17°C° 0 mm 2 mps 739 mmHg 44%
    18:00 +16°C° 0 mm 2 mps 739 mmHg 49%
    19:00 +15°C° 0 mm 2 mps 739 mmHg 53%
    20:00 +14°C° 0 mm 2 mps 739 mmHg 58%
    21:00 +14°C° 0 mm 2 mps 739 mmHg 59%
    22:00 +13°C° 0 mm 2 mps 739 mmHg 61%
    23:00 +13°C° 0 mm 2 mps 739 mmHg 62%
    Show more